• In Romania
  • List of Countries
  • For 7 days
  • Water Temperature
  • Satellite Maps
  • Weather Map
  • Weather Widgets
  • user-avatar
    Login

    Hourly Weather Mérida

    Today, 24 June, Sunday

    Time Temperature Precipitation Wind Pressure Humidity
    00:00 +14°C° 0.1 mm 2 mps 596 mmHg 71%
    01:00 +13°C° 0 mm 2 mps 596 mmHg 69%
    02:00 +13°C° 0.1 mm 2 mps 596 mmHg 70%
    03:00 +13°C° 0.1 mm 2 mps 595 mmHg 71%
    04:00 +13°C° 0.1 mm 2 mps 595 mmHg 73%
    05:00 +14°C° 0.2 mm 2 mps 596 mmHg 72%
    06:00 +15°C° 0.2 mm 2 mps 596 mmHg 72%
    07:00 +15°C° 0.2 mm 2 mps 597 mmHg 71%
    08:00 +16°C° 0.3 mm 2 mps 597 mmHg 70%
    09:00 +18°C° 0.3 mm 2 mps 598 mmHg 68%
    10:00 +19°C° 0.3 mm 2 mps 598 mmHg 67%
    11:00 +19°C° 0.2 mm 2 mps 598 mmHg 63%
    12:00 +20°C° 0.2 mm 2 mps 598 mmHg 59%
    13:00 +21°C° 0.2 mm 2 mps 598 mmHg 55%
    14:00 +21°C° 0.4 mm 2 mps 597 mmHg 58%
    15:00 +20°C° 0.4 mm 2 mps 597 mmHg 60%
    16:00 +20°C° 0.4 mm 2 mps 596 mmHg 62%
    17:00 +18°C° 0.2 mm 2 mps 596 mmHg 68%
    18:00 +18°C° 0.2 mm 1 mps 596 mmHg 75%
    19:00 +15°C° 0.2 mm 1 mps 595 mmHg 81%
    20:00 +15°C° 0.1 mm 1 mps 596 mmHg 79%
    21:00 +15°C° 0.1 mm 2 mps 596 mmHg 77%
    22:00 +14°C° 0.1 mm 2 mps 596 mmHg 75%
    23:00 +14°C° 0.5 mm 2 mps 596 mmHg 75%

    Tomorrow, 25 June, Monday

    Time Temperature Precipitation Wind Pressure Humidity
    00:00 +14°C° 0.5 mm 2 mps 596 mmHg 76%
    01:00 +14°C° 0.5 mm 2 mps 595 mmHg 76%
    02:00 +14°C° 1 mm 2 mps 595 mmHg 79%
    03:00 +13°C° 1 mm 2 mps 595 mmHg 81%
    04:00 +13°C° 1 mm 2 mps 595 mmHg 83%
    05:00 +13°C° 2.5 mm 2 mps 596 mmHg 84%
    06:00 +13°C° 2.5 mm 2 mps 596 mmHg 86%
    07:00 +13°C° 2.5 mm 2 mps 596 mmHg 87%
    08:00 +14°C° 2.3 mm 2 mps 597 mmHg 87%
    09:00 +14°C° 2.3 mm 1 mps 597 mmHg 87%
    10:00 +14°C° 2.3 mm 1 mps 597 mmHg 87%
    11:00 +15°C° 1.2 mm 1 mps 597 mmHg 85%
    12:00 +16°C° 1.2 mm 2 mps 597 mmHg 84%
    13:00 +16°C° 1.2 mm 2 mps 597 mmHg 82%
    14:00 +16°C° 0.3 mm 2 mps 597 mmHg 81%
    15:00 +18°C° 0.3 mm 1 mps 596 mmHg 79%
    16:00 +18°C° 0.3 mm 1 mps 596 mmHg 78%
    17:00 +16°C° 0.7 mm 1 mps 596 mmHg 81%
    18:00 +15°C° 0.7 mm 1 mps 596 mmHg 83%
    19:00 +14°C° 0.7 mm 1 mps 595 mmHg 86%
    20:00 +14°C° 0.5 mm 1 mps 596 mmHg 84%
    21:00 +14°C° 0.5 mm 1 mps 596 mmHg 82%
    22:00 +13°C° 0.5 mm 2 mps 596 mmHg 80%
    23:00 +13°C° 0.2 mm 2 mps 596 mmHg 79%

    Day after tomorrow, 26 June, Tuesday

    Time Temperature Precipitation Wind Pressure Humidity
    00:00 +13°C° 0.2 mm 1 mps 596 mmHg 79%
    01:00 +13°C° 0.2 mm 1 mps 595 mmHg 78%
    02:00 +13°C° 0.1 mm 1 mps 595 mmHg 78%
    03:00 +13°C° 0.1 mm 1 mps 595 mmHg 79%
    04:00 +12°C° 0.1 mm 1 mps 595 mmHg 79%
    05:00 +13°C° 0.4 mm 1 mps 595 mmHg 78%
    06:00 +13°C° 0.4 mm 1 mps 596 mmHg 77%
    07:00 +14°C° 0.4 mm 1 mps 596 mmHg 75%
    08:00 +15°C° 0.4 mm 1 mps 597 mmHg 74%
    09:00 +16°C° 0.4 mm 1 mps 598 mmHg 73%
    10:00 +18°C° 0.4 mm 1 mps 598 mmHg 71%
    11:00 +18°C° 0.4 mm 1 mps 598 mmHg 71%
    12:00 +18°C° 0.4 mm 1 mps 598 mmHg 70%
    13:00 +18°C° 0.4 mm 2 mps 597 mmHg 70%
    14:00 +19°C° 0.2 mm 1 mps 597 mmHg 70%
    15:00 +19°C° 0.2 mm 1 mps 596 mmHg 70%
    16:00 +19°C° 0.2 mm 1 mps 596 mmHg 69%
    17:00 +18°C° 0.6 mm 1 mps 596 mmHg 74%
    18:00 +16°C° 0.6 mm 1 mps 596 mmHg 78%
    19:00 +14°C° 0.6 mm 1 mps 595 mmHg 83%
    20:00 +14°C° 1.4 mm 1 mps 596 mmHg 83%
    21:00 +14°C° 1.4 mm 2 mps 596 mmHg 83%
    22:00 +14°C° 1.4 mm 2 mps 596 mmHg 83%
    23:00 +13°C° 3.9 mm 2 mps 596 mmHg 86%

    27 June, Wednesday

    Time Temperature Precipitation Wind Pressure Humidity
    00:00 +13°C° 3.9 mm 2 mps 595 mmHg 88%
    01:00 +13°C° 3.9 mm 2 mps 595 mmHg 90%
    02:00 +13°C° 3.9 mm 2 mps 595 mmHg 90%
    03:00 +13°C° 3.9 mm 2 mps 595 mmHg 90%
    04:00 +13°C° 3.9 mm 2 mps 595 mmHg 90%
    05:00 +13°C° 2.2 mm 2 mps 595 mmHg 90%
    06:00 +13°C° 2.2 mm 2 mps 596 mmHg 90%
    07:00 +13°C° 2.2 mm 2 mps 596 mmHg 91%
    08:00 +13°C° 2.7 mm 1 mps 596 mmHg 90%
    09:00 +14°C° 2.7 mm 1 mps 597 mmHg 89%
    10:00 +14°C° 2.7 mm 1 mps 597 mmHg 89%
    11:00 +15°C° 1.8 mm 1 mps 597 mmHg 86%
    12:00 +15°C° 1.8 mm 1 mps 597 mmHg 84%
    13:00 +16°C° 1.8 mm 2 mps 597 mmHg 81%
    14:00 +16°C° 0.4 mm 1 mps 596 mmHg 80%
    15:00 +16°C° 0.4 mm 1 mps 596 mmHg 79%
    16:00 +16°C° 0.4 mm 1 mps 596 mmHg 77%
    17:00 +15°C° 0.6 mm 1 mps 596 mmHg 79%
    18:00 +15°C° 0.6 mm 2 mps 596 mmHg 80%
    19:00 +14°C° 0.6 mm 2 mps 596 mmHg 81%
    20:00 +14°C° 0.7 mm 2 mps 596 mmHg 81%
    21:00 +14°C° 0.7 mm 2 mps 596 mmHg 81%
    22:00 +14°C° 0.7 mm 2 mps 597 mmHg 81%
    23:00 +14°C° 1.1 mm 2 mps 596 mmHg 82%

    28 June, Thursday

    Time Temperature Precipitation Wind Pressure Humidity
    00:00 +14°C° 1.1 mm 2 mps 596 mmHg 83%
    01:00 +14°C° 1.1 mm 2 mps 596 mmHg 84%
    02:00 +13°C° 1 mm 2 mps 596 mmHg 85%
    03:00 +13°C° 1 mm 2 mps 596 mmHg 86%
    04:00 +13°C° 1 mm 2 mps 595 mmHg 87%
    05:00 +13°C° 1.5 mm 2 mps 596 mmHg 87%
    06:00 +13°C° 1.5 mm 2 mps 596 mmHg 87%
    07:00 +13°C° 1.5 mm 2 mps 597 mmHg 86%
    08:00 +14°C° 1.1 mm 2 mps 597 mmHg 84%
    09:00 +15°C° 1.1 mm 2 mps 597 mmHg 81%
    10:00 +15°C° 1.1 mm 2 mps 598 mmHg 79%
    11:00 +16°C° 0.1 mm 2 mps 598 mmHg 73%
    12:00 +17°C° 0.1 mm 2 mps 598 mmHg 68%
    13:00 +19°C° 0.1 mm 1 mps 598 mmHg 63%
    14:00 +19°C° 0.1 mm 1 mps 597 mmHg 62%
    15:00 +19°C° 0.1 mm 1 mps 597 mmHg 62%
    16:00 +19°C° 0.1 mm 1 mps 596 mmHg 62%
    17:00 +18°C° 0.1 mm 1 mps 596 mmHg 65%
    18:00 +16°C° 0.1 mm 2 mps 596 mmHg 69%
    19:00 +14°C° 0.1 mm 2 mps 596 mmHg 72%
    20:00 +14°C° 0.5 mm 2 mps 596 mmHg 72%
    21:00 +14°C° 0.5 mm 2 mps 596 mmHg 72%
    22:00 +13°C° 0.5 mm 2 mps 596 mmHg 72%
    23:00 +13°C° 0.2 mm 2 mps 596 mmHg 72%

    29 June, Friday

    Time Temperature Precipitation Wind Pressure Humidity
    00:00 +13°C° 0.2 mm 2 mps 595 mmHg 72%
    01:00 +13°C° 0.2 mm 2 mps 595 mmHg 72%
    02:00 +13°C° 0.6 mm 2 mps 595 mmHg 74%
    03:00 +13°C° 0.6 mm 1 mps 595 mmHg 75%
    04:00 +13°C° 0.6 mm 1 mps 595 mmHg 76%
    05:00 +13°C° 1.9 mm 1 mps 596 mmHg 79%
    06:00 +13°C° 1.9 mm 1 mps 596 mmHg 81%
    07:00 +13°C° 1.9 mm 1 mps 597 mmHg 83%
    08:00 +13°C° 3.4 mm 1 mps 597 mmHg 84%
    09:00 +14°C° 3.4 mm 1 mps 597 mmHg 85%
    10:00 +14°C° 3.4 mm 1 mps 597 mmHg 86%
    11:00 +14°C° 3 mm 1 mps 597 mmHg 86%
    12:00 +14°C° 3 mm 1 mps 597 mmHg 86%
    13:00 +15°C° 3 mm 2 mps 596 mmHg 86%
    14:00 +15°C° 1 mm 1 mps 596 mmHg 85%
    15:00 +15°C° 1 mm 1 mps 596 mmHg 84%
    16:00 +15°C° 1 mm 1 mps 596 mmHg 83%
    17:00 +14°C° 0.3 mm 1 mps 596 mmHg 84%
    18:00 +14°C° 0.3 mm 1 mps 595 mmHg 84%
    19:00 +13°C° 0.3 mm 1 mps 595 mmHg 85%
    20:00 +13°C° 0.4 mm 1 mps 596 mmHg 84%
    21:00 +13°C° 0.4 mm 1 mps 596 mmHg 83%
    22:00 +13°C° 0.4 mm 1 mps 596 mmHg 81%
    23:00 +13°C° 0.1 mm 2 mps 596 mmHg 81%
    Show more